DW4183 Weather Reports


time (UTC)temp
C
wind
direction
speed
KPH
gust
KPH
rain 1hr
cm
rain 24hr
cm
rain mn
cm
humidity
%
barometer
mb
20260508144553 13 340 1.6 0.0 0.00 0.00 0.00 55 1017.1
20260508143110 12 14 1.6 0.0 0.00 0.00 0.00 55 1017.0
20260508141551 12 14 0.0 0.0 0.00 0.00 0.00 64 1017.1
20260508140043 11 19 0.0 0.0 0.00 0.00 0.00 67 1017.1
20260508134540 10 351 0.0 0.0 0.00 0.00 0.00 70 1017.0
20260508133033 10 357 0.0 0.0 0.00 0.00 0.00 82 1017.0
20260508131533 9 352 0.0 0.0 0.00 0.00 0.00 85 1016.9
20260508130032 8 2 0.0 0.0 0.00 0.00 0.00 90 1016.7
20260508124533 8 2 0.0 0.0 0.00 0.00 0.00 92 1016.9
20260508123030 7 2 0.0 0.0 0.00 0.00 0.00 92 1016.7
20260508121529 7 7 0.0 0.0 0.00 0.00 0.00 91 1016.7
20260508120027 6 7 0.0 0.0 0.00 0.00 0.00 91 1016.3
20260508114525 6 7 0.0 0.0 0.00 0.00 0.00 91 1016.2
20260508113024 6 7 0.0 0.0 0.00 0.00 0.00 91 1015.9
20260508111522 5 7 0.0 0.0 0.00 0.00 0.00 90 1015.7
20260508110030 5 7 0.0 0.0 0.00 0.00 0.00 90 1015.5
20260508104518 5 7 0.0 0.0 0.00 0.00 0.00 90 1015.2
20260508103035 5 7 0.0 0.0 0.00 0.00 0.00 90 1014.7
20260508101516 6 11 0.0 0.0 0.00 0.00 0.00 90 1014.5
20260508100013 6 2 0.0 0.0 0.00 0.00 0.00 90 1014.5
20260508094509 6 2 0.0 0.0 0.00 0.00 0.00 90 1014.3
20260508093010 6 2 0.0 0.0 0.00 0.00 0.00 89 1014.2
20260508091508 6 2 0.0 0.0 0.00 0.00 0.00 89 1014.0
20260508090006 6 2 0.0 0.0 0.00 0.00 0.00 89 1014.0
20260508084504 6 2 0.0 0.0 0.00 0.00 0.00 89 1013.9
20260508083002 7 2 0.0 0.0 0.00 0.00 0.00 89 1014.0
20260508081614 7 2 0.0 0.0 0.00 0.00 0.00 89 1013.8
20260508080101 7 2 0.0 0.0 0.00 0.00 0.00 89 1013.6
20260508074607 7 2 0.0 0.0 0.00 0.00 0.00 89 1013.5
20260508073056 7 2 0.0 0.0 0.00 0.00 0.00 89 1013.6
20260508071554 7 2 0.0 0.0 0.00 0.00 0.00 89 1013.4
20260508070053 7 2 0.0 0.0 0.00 0.00 0.00 89 1013.3
20260508064551 7 2 0.0 0.0 0.00 0.00 0.00 89 1013.3
20260508063055 8 2 0.0 0.0 0.00 0.00 0.00 89 1013.2
20260508061549 8 2 0.0 0.0 0.00 0.00 0.00 88 1013.0
20260508060058 8 2 0.0 0.0 0.00 0.00 0.00 89 1013.2
20260508054620 8 2 0.0 0.0 0.00 0.00 0.00 88 1012.9
20260508053050 8 2 0.0 0.0 0.00 0.00 0.00 88 1013.0
20260508051541 8 7 0.0 0.0 0.00 0.00 0.00 88 1012.8
20260508050038 8 7 0.0 0.0 0.00 0.00 0.00 87 1012.6
20260508044536 9 7 0.0 0.0 0.00 0.00 0.00 87 1012.6
20260508043037 9 7 0.0 0.0 0.00 0.00 0.00 87 1012.5
20260508041533 9 7 0.0 0.0 0.00 0.00 0.00 87 1012.5
20260508040033 10 7 0.0 0.0 0.00 0.00 0.00 86 1012.3
20260508034535 10 7 0.0 0.0 0.00 0.00 0.61 85 1012.1
20260508033032 10 7 0.0 0.0 0.00 0.00 0.61 85 1012.1
20260508031525 10 11 0.0 0.0 0.00 0.00 0.61 85 1012.1
20260508030024 10 12 0.0 0.0 0.00 0.00 0.61 84 1012.1
20260508024520 10 2 0.0 0.0 0.00 0.00 0.61 84 1011.8
20260508023019 10 2 0.0 0.0 0.00 0.00 0.61 82 1011.8
20260508021517 11 24 0.0 0.0 0.00 0.00 0.61 80 1011.5
20260508020016 11 24 0.0 0.0 0.00 0.00 0.61 78 1011.2
20260508014511 12 24 0.0 0.0 0.00 0.00 0.61 77 1010.7
20260508013009 12 24 0.0 0.0 0.00 0.00 0.61 75 1010.4
20260508011504 13 24 1.6 0.0 0.00 0.00 0.61 72 1010.3
20260508010005 13 24 0.0 0.0 0.00 0.00 0.61 67 1010.1
20260508004600 14 24 1.6 0.0 0.00 0.00 0.61 67 1009.8
20260508003057 15 26 3.2 0.0 0.00 0.00 0.61 67 1009.6
20260508001557 15 45 3.2 0.0 0.00 0.00 0.61 67 1009.4
20260508000054 16 38 3.2 0.0 0.00 0.00 0.61 66 1009.4
20260507234551 16 19 3.2 0.0 0.00 0.00 0.61 69 1009.3
20260507233051 16 14 3.2 0.0 0.00 0.00 0.61 72 1008.9
20260507231551 17 7 1.6 0.0 0.00 0.00 0.61 80 1008.7
20260507230049 17 58 1.6 0.0 0.00 0.00 0.61 82 1008.4
20260507224548 17 11 1.6 0.0 0.00 0.00 0.61 84 1007.9
20260507223048 16 27 0.0 0.0 0.00 0.00 0.61 85 1007.8
20260507221547 16 165 1.6 0.0 0.00 0.00 0.61 84 1007.6
20260507220047 16 282 1.6 0.0 0.00 0.00 0.61 84 1007.4
20260507214549 16 64 1.6 0.0 0.00 0.00 0.61 85 1007.3
20260507213047 16 332 3.2 0.0 0.00 0.00 0.61 86 1006.9
20260507211551 16 69 3.2 0.0 0.00 0.00 0.61 86 1007.0
20260507210045 17 21 3.2 0.0 0.00 0.00 0.61 84 1006.8
20260507204544 16 48 3.2 0.0 0.00 0.00 0.61 89 1006.5
20260507203046 16 340 3.2 0.0 0.00 0.00 0.61 87 1006.4
20260507201544 17 57 3.2 0.0 0.00 0.00 0.61 87 1006.2
20260507200043 18 166 1.6 0.0 0.00 0.00 0.58 87 1006.1
20260507194546 18 102 3.2 0.0 0.00 0.00 0.56 86 1006.0
20260507193043 20 85 1.6 0.0 0.00 0.00 0.53 83 1005.7
20260507191541 21 7 1.6 0.0 0.00 0.00 0.51 79 1005.6
20260507190041 22 39 0.0 0.0 0.00 0.00 0.51 76 1005.5
20260507184538 23 66 1.6 0.0 0.00 0.00 0.51 69 1005.3
20260507183045 23 312 1.6 0.0 0.00 0.00 0.51 73 1005.6
20260507181538 22 311 0.0 0.0 0.00 0.00 0.51 75 1005.6
20260507180033 22 314 0.0 0.0 0.00 0.00 0.51 77 1006.0
20260507174529 21 313 0.0 0.0 0.00 0.00 0.51 77 1006.2
20260507173026 21 313 1.6 0.0 0.00 0.00 0.51 77 1006.2
20260507171525 22 315 3.2 0.0 0.00 0.00 0.51 77 1006.3
20260507170022 20 301 1.6 0.0 0.00 0.00 0.51 83 1006.6
20260507164518 20 292 1.6 0.0 0.00 0.00 0.51 84 1007.1
20260507163015 19 327 0.0 0.0 0.00 0.00 0.51 86 1007.1
20260507161512 18 338 1.6 0.0 0.00 0.00 0.51 90 1007.1
20260507160022 18 39 0.0 0.0 0.00 0.00 0.48 91 1007.0
20260507154508 17 41 0.0 0.0 0.00 0.00 0.48 91 1006.9
20260507153008 18 346 1.6 0.0 0.00 0.00 0.48 92 1006.7
20260507151505 17 18 0.0 0.0 0.00 0.00 0.46 92 1007.0
20260507150005 17 18 0.0 0.0 0.00 0.00 0.46 92 1007.3